EW7659 Weather Reports


time (UTC)temp
C
wind
direction
speed
KPH
gust
KPH
rain 1hr
cm
rain 24hr
cm
rain mn
cm
humidity
%
barometer
mb
20260508060203 13 175 0.0 1.6 0.00 0.00 0.00 67 1007.4
20260508060151 13 175 0.0 0.0 0.00 0.00 0.00 67 1007.5
20260508055201 13 175 0.0 0.0 0.00 0.00 0.00 67 1007.5
20260508054658 13 175 0.0 0.0 0.00 0.00 0.00 67 1007.4
20260508054424 13 175 0.0 3.2 0.00 0.00 0.00 66 1007.4
20260508053704 13 175 0.0 3.2 0.00 0.00 0.00 66 1007.4
20260508053200 13 175 0.0 1.6 0.00 0.00 0.00 65 1007.5
20260508052655 13 175 0.0 3.2 0.00 0.00 0.00 65 1007.6
20260508052419 13 175 0.0 3.2 0.00 0.00 0.00 65 1007.6
20260508051655 13 174 0.0 1.6 0.00 0.00 0.00 64 1007.6
20260508051152 13 174 0.0 8.0 0.00 0.00 0.00 64 1007.6
20260508050651 14 174 0.0 8.0 0.00 0.00 0.00 64 1007.6
20260508050149 14 174 0.0 3.2 0.00 0.00 0.00 63 1007.6
20260508045646 14 183 0.0 1.6 0.00 0.00 0.00 63 1007.7
20260508045145 14 182 0.0 1.6 0.00 0.00 0.00 63 1007.7
20260508044642 14 182 0.0 4.8 0.00 0.00 0.00 63 1007.8
20260508044141 14 183 0.0 4.8 0.00 0.00 0.00 63 1007.8
20260508043638 14 182 0.0 9.7 0.00 0.00 0.00 62 1007.8
20260508043137 14 182 1.6 9.7 0.00 0.00 0.00 62 1007.9
20260508042638 14 183 1.6 4.8 0.00 0.00 0.00 61 1008.0
20260508042132 15 183 0.0 6.4 0.00 0.00 0.00 61 1008.1
20260508041632 15 182 1.6 6.4 0.00 0.00 0.00 61 1008.1
20260508041130 15 182 0.0 6.4 0.00 0.00 0.00 60 1008.1
20260508040630 15 182 1.6 8.0 0.00 0.00 0.00 60 1008.0
20260508040348 15 182 1.6 8.0 0.00 0.00 0.00 60 1008.0
20260508035630 15 180 0.0 1.6 0.00 0.00 0.00 60 1008.0
20260508035133 15 181 0.0 1.6 0.00 0.00 0.00 60 1008.0
20260508034631 15 181 0.0 1.6 0.00 0.00 0.00 59 1008.1
20260508034135 15 181 0.0 0.0 0.00 0.00 0.00 59 1008.0
20260508033630 15 181 0.0 0.0 0.00 0.00 0.00 58 1008.1
20260508033130 15 181 0.0 0.0 0.00 0.00 0.00 58 1008.1
20260508032630 15 181 0.0 0.0 0.00 0.00 0.00 57 1008.1
20260508032130 16 181 0.0 0.0 0.00 0.00 0.00 56 1008.0
20260508031628 16 181 0.0 0.0 0.00 0.00 0.00 55 1008.1
20260508031126 16 181 0.0 0.0 0.00 0.00 0.00 54 1008.2
20260508030627 16 181 0.0 4.8 0.00 0.00 0.00 54 1008.1
20260508030126 16 181 0.0 4.8 0.00 0.00 0.00 54 1008.1
20260508025626 16 181 0.0 0.0 0.00 0.00 0.00 53 1008.2
20260508025126 16 181 0.0 0.0 0.00 0.00 0.00 53 1008.2
20260508024621 16 181 0.0 0.0 0.00 0.00 0.00 53 1008.2
20260508024339 16 181 0.0 0.0 0.00 0.00 0.00 52 1008.2
20260508023609 17 181 0.0 0.0 0.00 0.00 0.00 52 1008.2
20260508023105 17 181 0.0 1.6 0.00 0.00 0.00 52 1008.1
20260508022604 17 181 0.0 1.6 0.00 0.00 0.00 51 1008.2
20260508022103 17 181 0.0 1.6 0.00 0.00 0.00 51 1008.1
20260508022043 17 181 0.0 0.0 0.00 0.00 0.00 51 1008.1
20260508021058 17 181 0.0 0.0 0.00 0.00 0.00 50 1008.0
20260508020821 17 181 0.0 0.0 0.00 0.00 0.00 50 1007.9
20260508020056 17 181 0.0 1.6 0.00 0.00 0.00 49 1007.9
20260508015557 17 181 0.0 1.6 0.00 0.00 0.00 49 1007.8
20260508015056 18 181 0.0 0.0 0.00 0.00 0.00 49 1007.7
20260508014556 18 181 0.0 1.6 0.00 0.00 0.00 49 1007.6
20260508014056 18 181 0.0 1.6 0.00 0.00 0.00 48 1007.5
20260508013553 18 181 0.0 0.0 0.00 0.00 0.00 48 1007.5
20260508013053 18 181 0.0 0.0 0.00 0.00 0.00 47 1007.4
20260508012815 18 181 0.0 0.0 0.00 0.00 0.00 46 1007.3
20260508012052 19 181 0.0 1.6 0.00 0.00 0.00 46 1007.3
20260508011551 19 181 0.0 1.6 0.00 0.00 0.00 46 1007.3
20260508011048 19 181 0.0 0.0 0.00 0.00 0.00 45 1007.3
20260508010548 20 181 0.0 0.0 0.00 0.00 0.00 45 1007.2
20260508010048 20 181 0.0 0.0 0.00 0.00 0.00 44 1007.0
20260508005546 20 181 0.0 0.0 0.00 0.00 0.00 43 1007.2
20260508005046 20 181 0.0 4.8 0.00 0.00 0.00 43 1007.0
20260508004811 20 181 0.0 4.8 0.00 0.00 0.00 42 1007.0
20260508004046 20 181 0.0 3.2 0.00 0.00 0.00 41 1007.0
20260508003546 21 181 0.0 1.6 0.00 0.00 0.00 39 1007.0
20260508003042 21 181 0.0 1.6 0.00 0.00 0.00 39 1006.9
20260508002542 21 181 0.0 1.6 0.00 0.00 0.00 39 1007.0
20260508002043 21 181 0.0 3.2 0.00 0.00 0.00 38 1007.0
20260508001543 21 181 0.0 3.2 0.00 0.00 0.00 37 1007.0
20260508001042 21 180 0.0 1.6 0.00 0.00 0.00 38 1007.0
20260508000806 21 182 0.0 1.6 0.00 0.00 0.00 37 1007.0
20260508000312 21 188 0.0 1.6 0.00 0.00 0.00 37 1007.2
20260507235542 22 188 0.0 1.6 0.00 0.00 0.00 37 1007.2
20260507235042 22 193 0.0 0.0 0.00 0.00 0.00 37 1007.3
20260507234538 22 193 0.0 4.8 0.00 0.00 0.00 38 1007.3
20260507234038 22 190 0.0 4.8 0.00 0.00 0.00 36 1007.2
20260507233538 22 190 0.0 6.4 0.00 0.00 0.00 35 1007.3
20260507233038 22 194 0.0 6.4 0.00 0.00 0.00 35 1007.2
20260507232538 22 184 0.0 3.2 0.00 0.00 0.00 35 1007.3
20260507232037 22 190 0.0 3.2 0.00 0.00 0.00 35 1007.3
20260507231540 22 193 0.0 3.2 0.00 0.00 0.00 35 1007.4
20260507231038 22 194 0.0 3.2 0.00 0.00 0.00 35 1007.4
20260507230802 22 188 0.0 6.4 0.00 0.00 0.00 35 1007.5
20260507230037 22 276 0.0 6.4 0.00 0.00 0.00 36 1007.5
20260507225537 22 170 0.0 3.2 0.00 0.00 0.00 35 1007.6
20260507225038 22 169 0.0 1.6 0.00 0.00 0.00 37 1007.7
20260507224801 22 169 0.0 1.6 0.00 0.00 0.00 37 1007.7
20260507224033 22 185 0.0 1.6 0.00 0.00 0.00 38 1007.8
20260507223752 22 183 0.0 3.2 0.00 0.00 0.00 35 1007.7
20260507223254 22 172 0.0 3.2 0.00 0.00 0.00 35 1007.8
20260507222530 22 175 0.0 3.2 0.00 0.00 0.00 35 1007.9
20260507222031 22 265 0.0 3.2 0.00 0.00 0.00 37 1007.9
20260507221529 22 218 0.0 3.2 0.00 0.00 0.00 37 1007.9
20260507221033 22 218 0.0 3.2 0.00 0.00 0.00 37 1008.0
20260507220530 22 165 0.0 11.3 0.00 0.00 0.00 35 1008.0
20260507220030 22 180 0.0 11.3 0.00 0.00 0.00 35 1008.0
20260507215530 22 259 0.0 6.4 0.00 0.00 0.00 39 1008.0
20260507215038 22 257 0.0 8.0 0.00 0.00 0.00 38 1008.1
20260507214536 22 225 0.0 8.0 0.00 0.00 0.00 35 1008.2
20260507214031 22 156 0.0 11.3 0.00 0.00 0.00 37 1008.2
20260507213740 22 256 0.0 14.5 0.00 0.00 0.00 36 1008.3
20260507213019 22 169 0.0 14.5 0.00 0.00 0.00 38 1008.4
20260507212508 22 169 0.0 8.0 0.00 0.00 0.00 38 1008.4
20260507212233 22 161 0.0 8.0 0.00 0.00 0.00 36 1008.6
20260507211511 22 155 0.0 14.5 0.00 0.00 0.00 40 1008.7
20260507211011 22 165 0.0 14.5 0.00 0.00 0.00 38 1008.8
20260507210510 22 254 1.6 8.0 0.00 0.00 0.00 36 1008.9
20260507210012 22 178 0.0 6.4 0.00 0.00 0.00 38 1009.0
20260507205506 22 175 0.0 1.6 0.00 0.00 0.00 37 1009.0
20260507205005 22 206 0.0 9.7 0.00 0.00 0.00 39 1009.1
20260507204506 22 227 0.0 9.7 0.00 0.00 0.00 39 1009.2
20260507204004 22 159 0.0 9.7 0.00 0.00 0.00 39 1009.3
20260507203504 22 232 0.0 0.0 0.00 0.00 0.00 41 1009.4
20260507203226 21 217 0.0 1.6 0.00 0.00 0.00 39 1009.4
20260507202502 21 218 0.0 1.6 0.00 0.00 0.00 41 1009.5
20260507202226 21 200 0.0 1.6 0.00 0.00 0.00 39 1009.7
20260507201504 21 154 0.0 1.6 0.00 0.00 0.00 38 1009.8
20260507201002 21 167 0.0 4.8 0.00 0.00 0.00 44 1009.7
20260507200725 21 167 0.0 9.7 0.00 0.00 0.00 39 1010.0
20260507200224 21 165 0.0 9.7 0.00 0.00 0.00 39 1010.1
20260507195452 21 225 0.0 1.6 0.00 0.00 0.00 39 1010.1
20260507195206 21 221 0.0 12.9 0.00 0.00 0.00 40 1010.3
20260507194448 21 232 0.0 12.9 0.00 0.00 0.00 39 1010.4
20260507193944 21 247 0.0 6.4 0.00 0.00 0.00 40 1010.4
20260507193443 21 258 0.0 8.0 0.00 0.00 0.00 43 1010.5
20260507192940 20 184 0.0 8.0 0.00 0.00 0.00 41 1010.6
20260507192437 20 248 0.0 8.0 0.00 0.00 0.00 42 1010.6
20260507191937 20 223 0.0 8.0 0.00 0.00 0.00 43 1010.7
20260507191437 20 164 0.0 6.4 0.00 0.00 0.00 39 1010.7
20260507190938 20 163 0.0 9.7 0.00 0.00 0.00 42 1010.8
20260507190436 20 238 1.6 12.9 0.00 0.00 0.00 43 1010.8
20260507185935 20 153 1.6 12.9 0.00 0.00 0.00 41 1010.9
20260507185435 20 190 0.0 4.8 0.00 0.00 0.00 42 1010.9
20260507184936 20 227 0.0 12.9 0.00 0.00 0.00 47 1010.9
20260507184435 20 309 0.0 12.9 0.00 0.00 0.00 42 1011.0
20260507183936 20 192 0.0 11.3 0.00 0.00 0.00 43 1011.1
20260507183439 20 280 0.0 11.3 0.00 0.00 0.00 43 1011.1
20260507182935 20 174 0.0 11.3 0.00 0.00 0.00 42 1011.2
20260507182434 20 282 1.6 11.3 0.00 0.00 0.00 43 1011.3
20260507181933 20 167 1.6 19.3 0.00 0.00 0.00 48 1011.3
20260507181431 20 168 1.6 19.3 0.00 0.00 0.00 42 1011.5
20260507180927 20 169 0.0 4.8 0.00 0.00 0.00 43 1011.5
20260507180421 19 175 0.0 4.8 0.00 0.00 0.00 44 1011.6
20260507175916 19 141 1.6 4.8 0.00 0.00 0.00 43 1011.7
20260507175416 19 271 0.0 8.0 0.00 0.00 0.00 45 1011.9
20260507174916 19 164 0.0 12.9 0.00 0.00 0.00 44 1011.9
20260507174418 18 233 0.0 12.9 0.00 0.00 0.00 43 1011.9
20260507173913 18 156 0.0 8.0 0.00 0.00 0.00 44 1011.9
20260507173414 18 225 0.0 8.0 0.00 0.00 0.00 44 1012.0
20260507173132 18 212 0.0 8.0 0.00 0.00 0.00 44 1012.0
20260507172630 18 186 0.0 3.2 0.00 0.00 0.00 43 1012.1
20260507172130 18 160 0.0 1.6 0.00 0.00 0.00 45 1012.2
20260507171408 18 211 1.6 11.3 0.00 0.00 0.00 45 1012.4
20260507170908 18 184 1.6 11.3 0.00 0.00 0.00 45 1012.6
20260507170410 18 176 0.0 9.7 0.00 0.00 0.00 44 1012.8
20260507165908 18 264 1.6 16.1 0.00 0.00 0.00 45 1012.7
20260507165408 18 186 1.6 16.1 0.00 0.00 0.00 46 1012.7
20260507164906 18 156 1.6 12.9 0.00 0.00 0.00 46 1012.8
20260507164404 18 159 0.0 12.9 0.00 0.00 0.00 46 1012.8
20260507163904 18 213 0.0 11.3 0.00 0.00 0.00 45 1012.9
20260507163403 18 166 0.0 11.3 0.00 0.00 0.00 46 1013.0
20260507162903 18 183 0.0 12.9 0.00 0.00 0.00 46 1013.1
20260507162400 17 245 0.0 12.9 0.00 0.00 0.00 47 1013.2
20260507161854 17 281 1.6 17.7 0.00 0.00 0.00 47 1013.2
20260507161835 17 217 0.0 17.7 0.00 0.00 0.00 48 1013.2
20260507160841 17 220 0.0 8.0 0.00 0.00 0.00 46 1013.3
20260507160336 17 194 0.0 1.6 0.00 0.00 0.00 47 1013.3
20260507155835 17 194 0.0 0.0 0.00 0.00 0.00 47 1013.3
20260507155331 17 177 0.0 1.6 0.00 0.00 0.00 47 1013.3
20260507154831 17 170 0.0 1.6 0.00 0.00 0.00 47 1013.4
20260507154331 17 200 0.0 1.6 0.00 0.00 0.00 48 1013.5
20260507153830 17 202 0.0 3.2 0.00 0.00 0.00 47 1013.5
20260507153330 17 202 0.0 3.2 0.00 0.00 0.00 48 1013.5
20260507152829 16 201 0.0 6.4 0.00 0.00 0.00 49 1013.6
20260507152552 16 203 0.0 6.4 0.00 0.00 0.00 50 1013.7
20260507151829 16 194 0.0 4.8 0.00 0.00 0.00 49 1013.7
20260507151330 16 193 0.0 4.8 0.00 0.00 0.00 50 1013.7
20260507151310 16 220 0.0 1.6 0.00 0.00 0.00 53 1013.8
20260507150328 16 220 0.0 1.6 0.00 0.00 0.00 52 1013.8
20260507145827 15 215 0.0 1.6 0.00 0.00 0.00 52 1013.9
20260507145546 15 217 0.0 1.6 0.00 0.00 0.00 53 1014.0
20260507144827 15 184 0.0 1.6 0.00 0.00 0.00 57 1014.1
20260507144327 15 184 0.0 1.6 0.00 0.00 0.00 53 1014.1
20260507143827 15 185 0.0 1.6 0.00 0.00 0.00 57 1014.2
20260507143327 14 185 0.0 11.3 0.00 0.00 0.00 58 1014.2
20260507142823 14 186 0.0 11.3 0.00 0.00 0.00 59 1014.2
20260507142323 14 166 0.0 6.4 0.00 0.00 0.00 57 1014.2
20260507141824 13 175 0.0 1.6 0.00 0.00 0.00 59 1014.2
20260507141323 13 175 0.0 1.6 0.00 0.00 0.00 59 1014.2
20260507140821 13 178 0.0 1.6 0.00 0.00 0.00 58 1014.3
20260507140322 13 175 0.0 1.6 0.00 0.00 0.00 58 1014.3
20260507135822 13 176 0.0 9.7 0.00 0.00 0.00 60 1014.2
20260507135321 13 175 0.0 9.7 0.00 0.00 0.00 62 1014.2
20260507134822 13 169 0.0 0.0 0.00 0.00 0.00 63 1014.2
20260507134805 12 49 0.0 0.0 0.00 0.00 0.00 61 1014.2
20260507133818 12 39 0.0 0.0 0.00 0.00 0.00 64 1014.2
20260507133318 12 40 0.0 0.0 0.00 0.00 0.00 67 1014.1
20260507132817 12 40 0.0 0.0 0.00 0.00 0.00 67 1014.1
20260507132317 11 40 0.0 0.0 0.00 0.00 0.00 70 1014.1
20260507132042 11 40 0.0 0.0 0.00 0.00 0.00 73 1014.1
20260507131317 10 40 0.0 0.0 0.00 0.00 0.00 77 1014.2
20260507130811 9 40 0.0 0.0 0.00 0.00 0.00 82 1014.2
20260507130311 8 36 0.0 0.0 0.00 0.00 0.00 88 1014.1
20260507125809 8 35 0.0 0.0 0.00 0.00 0.00 90 1014.1
20260507125531 8 35 0.0 0.0 0.00 0.00 0.00 92 1014.0
20260507124807 7 35 0.0 0.0 0.00 0.00 0.00 93 1014.0
20260507124305 7 35 0.0 0.0 0.00 0.00 0.00 93 1014.0
20260507123806 7 35 0.0 0.0 0.00 0.00 0.00 93 1013.9
20260507123303 6 35 0.0 0.0 0.00 0.00 0.00 93 1013.9
20260507122803 6 35 0.0 0.0 0.00 0.00 0.00 93 1013.8
20260507122306 6 35 0.0 0.0 0.00 0.00 0.00 93 1013.8
20260507121802 6 35 0.0 0.0 0.00 0.00 0.00 93 1013.7
20260507121302 6 35 0.0 0.0 0.00 0.00 0.00 93 1013.6
20260507120802 6 35 0.0 0.0 0.00 0.00 0.00 93 1013.6
20260507120303 6 35 0.0 0.0 0.00 0.00 0.00 93 1013.6
20260507120023 5 35 0.0 0.0 0.00 0.00 0.00 93 1013.6
20260507115307 5 35 0.0 0.0 0.00 0.00 0.00 93 1013.6
20260507114802 5 35 0.0 0.0 0.00 0.00 0.00 92 1013.5
20260507114520 5 35 0.0 0.0 0.00 0.00 0.00 91 1013.5
20260507113802 5 35 0.0 0.0 0.00 0.00 0.00 91 1013.5
20260507113302 5 35 0.0 0.0 0.00 0.00 0.00 91 1013.4
20260507113034 5 35 0.0 0.0 0.00 0.00 0.00 91 1013.5
20260507112306 5 35 0.0 0.0 0.00 0.00 0.00 90 1013.5
20260507111802 5 35 0.0 0.0 0.00 0.00 0.00 90 1013.5
20260507111303 5 35 0.0 0.0 0.00 0.00 0.00 90 1013.4
20260507110802 5 35 0.0 0.0 0.00 0.00 0.00 90 1013.4
20260507110303 6 35 0.0 0.0 0.00 0.00 0.00 90 1013.3
20260507110240 6 35 0.0 0.0 0.00 0.00 0.00 90 1013.3
20260507105306 6 35 0.0 0.0 0.00 0.00 0.00 90 1013.3
20260507105026 6 35 0.0 0.0 0.00 0.00 0.00 90 1013.4
20260507104259 6 35 0.0 0.0 0.00 0.00 0.00 90 1013.5
20260507103759 6 35 0.0 0.0 0.00 0.00 0.00 90 1013.5
20260507103259 6 35 0.0 0.0 0.00 0.00 0.00 89 1013.4
20260507102800 6 35 0.0 0.0 0.00 0.00 0.00 89 1013.4
20260507102300 6 35 0.0 0.0 0.00 0.00 0.00 89 1013.5
20260507101759 6 35 0.0 0.0 0.00 0.00 0.00 89 1013.4
20260507101259 6 35 0.0 0.0 0.00 0.00 0.00 89 1013.4
20260507101017 7 35 0.0 0.0 0.00 0.00 0.00 89 1013.4
20260507100259 7 35 0.0 0.0 0.00 0.00 0.00 89 1013.4
20260507100243 7 35 0.0 0.0 0.00 0.00 0.00 89 1013.3
20260507095257 7 35 0.0 0.0 0.00 0.00 0.00 90 1013.3
20260507094756 7 35 0.0 0.0 0.00 0.00 0.00 90 1013.2
20260507094255 7 35 0.0 0.0 0.00 0.00 0.00 90 1013.3
20260507093755 7 35 0.0 0.0 0.00 0.00 0.00 90 1013.3
20260507093254 7 35 0.0 0.0 0.00 0.00 0.00 90 1013.2
20260507092752 7 35 0.0 0.0 0.00 0.00 0.00 91 1013.0
20260507092251 7 35 0.0 0.0 0.00 0.00 0.00 91 1013.0
20260507091748 7 35 0.0 0.0 0.00 0.00 0.00 91 1013.0
20260507091246 7 35 0.0 0.0 0.00 0.00 0.00 91 1013.0
20260507090744 7 35 0.0 0.0 0.00 0.00 0.00 91 1013.2
20260507090242 7 35 0.0 0.0 0.00 0.00 0.00 92 1013.2
20260507090227 7 35 0.0 0.0 0.00 0.00 0.00 92 1013.3
20260507085239 7 35 0.0 0.0 0.00 0.00 0.00 92 1013.3
20260507084737 7 35 0.0 0.0 0.00 0.00 0.00 92 1013.3
20260507084235 6 35 0.0 0.0 0.00 0.00 0.00 93 1013.1
20260507083736 6 35 0.0 0.0 0.00 0.00 0.00 93 1013.4
20260507083235 6 35 0.0 0.0 0.00 0.00 0.00 93 1013.4
20260507082734 6 35 0.0 0.0 0.00 0.00 0.00 93 1013.4
20260507082232 6 35 0.0 0.0 0.00 0.00 0.00 93 1013.6
20260507081729 6 35 0.0 0.0 0.00 0.00 0.00 93 1013.7
20260507081223 6 35 0.0 0.0 0.00 0.00 0.00 92 1013.6
20260507080717 6 35 0.0 0.0 0.00 0.00 0.00 92 1013.7
20260507080211 6 35 0.0 0.0 0.00 0.00 0.00 92 1013.7
20260507075711 6 35 0.0 0.0 0.00 0.00 0.00 92 1013.7
20260507075214 6 35 0.0 0.0 0.00 0.00 0.00 92 1013.7
20260507074711 6 35 0.0 0.0 0.00 0.00 0.00 92 1013.9
20260507074210 6 35 0.0 0.0 0.00 0.00 0.00 91 1013.9
20260507073712 6 35 0.0 0.0 0.00 0.00 0.00 91 1013.8
20260507073210 6 35 0.0 0.0 0.00 0.00 0.00 92 1013.6
20260507072710 6 35 0.0 0.0 0.00 0.00 0.00 92 1014.0
20260507072211 6 35 0.0 0.0 0.00 0.00 0.00 92 1014.0
20260507071931 6 35 0.0 0.0 0.00 0.00 0.00 91 1014.0
20260507071207 6 35 0.0 0.0 0.00 0.00 0.00 91 1013.9
20260507070708 6 35 0.0 0.0 0.00 0.00 0.00 91 1013.9
20260507070205 6 35 0.0 0.0 0.00 0.00 0.00 90 1013.9
20260507065705 6 35 0.0 0.0 0.00 0.00 0.00 90 1013.9
20260507065429 6 35 0.0 0.0 0.00 0.00 0.00 90 1014.0
20260507064702 6 35 0.0 0.0 0.00 0.00 0.00 90 1014.0
20260507064202 6 35 0.0 0.0 0.00 0.00 0.00 89 1014.0
20260507063701 6 35 0.0 0.0 0.00 0.00 0.00 89 1014.0
20260507063202 6 35 0.0 0.0 0.00 0.00 0.00 89 1014.0
20260507062658 6 35 0.0 0.0 0.00 0.00 0.00 88 1013.9
20260507062153 6 35 0.0 0.0 0.00 0.00 0.00 88 1013.9
20260507061651 6 35 0.0 0.0 0.00 0.00 0.00 88 1014.0
20260507061150 6 35 0.0 0.0 0.00 0.00 0.00 88 1014.2
20260507060912 6 35 0.0 0.0 0.00 0.00 0.00 88 1014.0